TimeCDT,TemperatureF,Dew PointF,Humidity,Sea Level PressureIn,VisibilityMPH,Wind Direction,Wind SpeedMPH,Gust SpeedMPH,PrecipitationIn,Events,Conditions,WindDirDegrees,DateUTC
12:52 AM,45.0,37.0,74,29.93,10.0,Calm,Calm,-,N/A,,Clear,0,2013-09-21 05:52:00
1:52 AM,48.9,37.9,66,29.92,10.0,SE,3.5,-,N/A,,Clear,130,2013-09-21 06:52:00
2:52 AM,48.9,37.9,66,29.91,10.0,South,3.5,-,N/A,,Clear,180,2013-09-21 07:52:00
3:52 AM,39.9,36.0,86,29.91,10.0,Calm,Calm,-,N/A,,Clear,0,2013-09-21 08:52:00
4:52 AM,42.1,36.0,79,29.89,10.0,Calm,Calm,-,N/A,,Clear,0,2013-09-21 09:52:00
5:52 AM,37.9,34.0,86,29.89,10.0,Calm,Calm,-,N/A,,Clear,0,2013-09-21 10:52:00
6:52 AM,39.9,36.0,86,29.88,10.0,NNE,4.6,-,N/A,,Clear,20,2013-09-21 11:52:00
7:52 AM,41.0,36.0,82,29.86,10.0,NNE,4.6,-,N/A,,Clear,30,2013-09-21 12:52:00
8:52 AM,48.9,39.9,71,29.86,10.0,East,5.8,-,N/A,,Clear,100,2013-09-21 13:52:00
9:52 AM,55.0,39.9,57,29.84,10.0,SSE,6.9,-,N/A,,Clear,150,2013-09-21 14:52:00
10:52 AM,59.0,41.0,51,29.82,10.0,SSE,12.7,20.7,N/A,,Clear,150,2013-09-21 15:52:00
11:52 AM,64.9,42.1,43,29.79,10.0,SSE,12.7,20.7,N/A,,Clear,150,2013-09-21 16:52:00
12:52 PM,69.1,41.0,36,29.77,10.0,SSE,17.3,25.3,N/A,,Clear,160,2013-09-21 17:52:00
1:52 PM,71.1,44.1,38,29.73,10.0,SSE,16.1,26.5,N/A,,Clear,160,2013-09-21 18:52:00
2:52 PM,73.9,46.0,37,29.70,10.0,SE,13.8,20.7,N/A,,Clear,140,2013-09-21 19:52:00
3:52 PM,75.0,45.0,34,29.69,10.0,SSE,15.0,21.9,N/A,,Clear,150,2013-09-21 20:52:00
4:52 PM,75.9,46.0,35,29.66,10.0,SSE,15.0,23.0,N/A,,Clear,160,2013-09-21 21:52:00
5:52 PM,75.9,46.9,36,29.65,10.0,SSE,15.0,21.9,N/A,,Clear,150,2013-09-21 22:52:00
6:52 PM,73.9,46.9,38,29.64,10.0,SE,10.4,-,N/A,,Clear,140,2013-09-21 23:52:00
7:52 PM,69.1,48.0,47,29.63,10.0,SE,9.2,-,N/A,,Clear,130,2013-09-22 00:52:00
8:52 PM,66.0,48.0,52,29.64,10.0,SE,8.1,-,N/A,,Clear,130,2013-09-22 01:52:00
9:52 PM,64.9,46.9,52,29.63,10.0,SE,9.2,17.3,N/A,,Clear,130,2013-09-22 02:52:00
10:52 PM,63.0,46.0,54,29.62,10.0,SE,10.4,-,N/A,,Clear,130,2013-09-22 03:52:00
11:52 PM,62.1,44.1,52,29.61,10.0,SE,8.1,-,N/A,,Clear,140,2013-09-22 04:52:00